Location: Asheville, NC
(35.6000°N, 82.5500°W)
Time: 18:38:56
(UTC-04:00)

FALCONSAT 3 - Pass Details

Date: 11 March 2018
Orbit: 460 x 464 km, 35.4° (Epoch: 19 June)

Event Time Altitude Azimuth Distance (km) Brightness Sun altitude
Exits shadow 06:09:04 65° 187° (S) 507 ? -20.6°
Maximum altitude 06:09:14 67° 168° (SSE) 503 ? -20.5°
Drops below altitude 10° 06:12:52 10° 85° (E) 1,604 ? -19.8°
Sets 06:15:03 0° 83° (E) 2,478 ? -19.4°
